Weather History for Eilat, Israel

Change the Weather History Date:

Monday, February 25, 2013

  Actual Average Record
Temperature  
Mean Temperature 73 °F -  
Max Temperature 89 °F 76 °F 89 °F (2013)
Min Temperature 57 °F 57 °F 41 °F (1997)
Cooling Degree Days 8    
Growing Degree Days 23 (Base 50)    
Moisture  
Dew Point 46 °F    
Average Humidity 41    
Maximum Humidity 77    
Minimum Humidity 6    
Precipitation  
Precipitation 0.00 in 0.01 in - ()
Sea Level Pressure  
Sea Level Pressure 30.11 in    
Wind  
Wind Speed 6 mph ()    
Max Wind Speed 13 mph    
Max Gust Speed -    
Visibility 6.5 miles    
Events      
Averages and records for this station are not official NWS values.
T = Trace of Precipitation, MM = Missing Value Source: Averaged Metar Reports

Daily Weather History Graph

Daily Weather History Graph

Search for Another Location

Airport:

Trip Planner

Search our weather history database for the weather conditions in past years. The results will help you decide how hot, cold, wet, or windy it might be!

Date:

Astronomy

Feb. 25, 2013 Rise Set
Actual Time 6:10 AM IST 5:36 PM IST
Civil Twilight 5:46 AM IST 6:00 PM IST
Nautical Twilight 5:18 AM IST 6:28 PM IST
Astronomical Twilight 4:50 AM IST 6:56 PM IST
Moon 5:25 PM IST (2/25) 5:30 AM IST (2/25)
Length of Visible Light 12h 14m
Length of Day
11h 26m
Full, 100% of the Moon is Illuminated
Feb 25
Full
Feb 25
Full
Mar 4
Last Quarter
Mar 11
New
Mar 19
First Quarter

Hourly Weather History & Observations

Time (IST) Temp. Dew Point Humidity Pressure Visibility Wind Dir Wind Speed Gust Speed Precip Events Conditions
2:00 AM 62 °F 46 °F 45% 30.17 in 12 mi North 6.9 mph - -  
5:50 AM 59.0 °F 51.8 °F 77% 30.15 in 6.2 mi NNE 11.5 mph - N/A   Partly Cloudy
6:50 AM 59.0 °F 51.8 °F 77% 30.18 in 6.2 mi NNE 11.5 mph - N/A   Scattered Clouds
7:50 AM 62.6 °F 51.8 °F 68% 30.18 in 5.0 mi NNE 12.7 mph - N/A   Partly Cloudy
8:00 AM 63 °F 49 °F 51% 30.17 in - NNE 6.9 mph - -  
8:50 AM 68.0 °F 50.0 °F 52% 30.18 in 6.2 mi NNE 11.5 mph - N/A   Partly Cloudy
9:50 AM 73.4 °F 42.8 °F 33% 30.15 in 6.2 mi NNE 9.2 mph - N/A   Partly Cloudy
10:50 AM 78.8 °F 37.4 °F 23% 30.15 in 6.2 mi NNE 4.6 mph - N/A   Scattered Clouds
11:50 AM 80.6 °F 35.6 °F 20% 30.12 in 6.2 mi Variable 3.5 mph - N/A   Scattered Clouds
12:50 PM 86.0 °F 33.8 °F 15% 30.06 in 6.2 mi Variable 2.3 mph - N/A   Scattered Clouds
1:50 PM 86.0 °F 33.8 °F 15% 30.06 in 6.2 mi NNE 6.9 mph - N/A   Mostly Cloudy
2:00 PM 89 °F 31 °F 6% 30.04 in - ENE 4.6 mph - -  
2:50 PM 87.8 °F 32.0 °F 14% 30.04 in 6.2 mi South 5.8 mph - N/A   Mostly Cloudy
3:50 PM 80.6 °F 46.4 °F 30% 30.04 in 6.2 mi South 11.5 mph - N/A   Mostly Cloudy
4:50 PM 77.0 °F 51.8 °F 41% 30.04 in 6.2 mi South 8.1 mph - N/A   Mostly Cloudy
5:50 PM 75.2 °F 55.4 °F 50% 30.06 in 6.2 mi South 4.6 mph - N/A   Mostly Cloudy
6:50 PM 75.2 °F 53.6 °F 47% 30.09 in 6.2 mi South 4.6 mph - N/A   Mostly Cloudy
7:50 PM 71.6 °F 53.6 °F 53% 30.12 in 6.2 mi NE 3.5 mph - N/A   Mostly Cloudy
8:00 PM 71 °F 53 °F 42% 30.11 in - NE 1.2 mph - -  
8:50 PM 71.6 °F 46.4 °F 41% 30.12 in 6.2 mi Variable 2.3 mph - N/A   Mostly Cloudy
9:50 PM 68.0 °F 50.0 °F 52% 30.12 in 6.2 mi Variable 1.2 mph - N/A   Scattered Clouds